www.pogodaiklimat.ru

Погода и климат >> Архив погоды >> Россия >> Тверская область >> Бологое


ПОГОДА в Бологом

  • Прогноз погоды в Бологом
  • Монитор погоды в Бологом
  • Климат города

АРХИВ ПОГОДЫ в Бологом

Время (UTC), дата Ветер
(напр.,м/с)
 
Видим.   Явления Облачность Т
(С)
Тd
(С)
f
(%)
Тe
(С)
Тes
(С)
Комфортность P
(гПа)
Po
(гПа)
Тmin
(С)
Tmax
(С)
R
(мм)
R24
(мм)
S
(см)
15 10.07 СЗ 1 10 км 10/10 300 м
[St]
+17.8 +14.6 82 +19 +19 1017.4 995.5 0.0
18 10.07 С 1 4000 м слабая морось 10/10 300 м
[St]
+15.9 +14.6 92 +17 +17 1018.2 996.1 +18.0 0.3
21 10.07 СЗ 1 4000 м дымка {морось} 9/9 300 м
[St]
+14.9 +13.6 92 +15 +15 1018.6 996.4
00 11.07 СЗ 1 4000 м дымка {морось} 9/9 600 м
[Sc]
+14.1 +13.1 94 +14 +14 1018.7 996.4
03 11.07 СЗ 2 4000 м дымка 8/0
[Ac cast Ci fib]
+14.9 +13.8 93 +15 +15 1018.2 996.0 +13.4 0.3
06 11.07 СЗ 2 10 км 9/5 600 м
[Sc Ac cast]
+17.8 +14.8 83 +18 +20 1018.3 996.3 +13.4 0.0
09 11.07 С 1 10 км 9/5 600 м
[Cu Sc Ac cast]
+21.3 +15.2 68 +24 +28 комфорт 1017.8 996.1
12 11.07 СВ 1 20 км 9/6 600 м
[Cu Sc Ac cast]
+23.5 +15.4 60 +26 +29 жарко 1016.7 995.2
15 11.07 С 1 20 км 8/6 600 м
[Cu Sc Ac cast]
+22.5 +14.6 61 +26 +27 жарко 1016.8 995.3
18 11.07 штиль 0 10 км 8/8 600 м
[Sc]
+19.8 +16.3 80 +22 +22 комфорт 1017.3 995.5 +25.2
21 11.07 штиль 0 4000 м дымка 9/9 600 м
[Sc]
+17.5 +16.2 92 +17 +17 1017.8 995.8
00 12.07 СВ 1 4000 м дымка 6/4 600 м
[Sc Ac cast]
+15.8 +14.8 94 +16 +16 1017.5 995.4
03 12.07 СЗ 1 4000 м дымка 4/3 600 м
[Sc Ac cast]
+16.7 +15.8 94 +18 +18 1017.7 995.7 +14.6
06 12.07 В 1 20 км 3/0
[Ac cast]
+23.6 +14.9 58 +26 +34 жарко 1017.0 995.5 +14.6
09 12.07 СВ 2 20 км 4/4 600 м
[Cu med, cong]
+25.3 +12.0 43 +27 +35 жарко 1016.3 994.9
12 12.07 СВ 2 20 км 3/3 600 м
[Cu med, cong]
+26.1 +10.7 38 +27 +35 жарко 1015.4 994.1
15 12.07 СВ 2 20 км 3/3 600 м
[Cu med, cong]
+26.1 +9.3 35 +27 +29 жарко 1014.2 992.9
18 12.07 В 1 20 км 4/3 600 м
[Sc diur, vesp Ci fib]
+20.8 +12.6 59 +24 +24 комфорт 1015.0 993.3 +26.3
21 12.07 штиль 0 4000 м дымка 1/0
[Ac cast]
+15.1 +13.4 90 +15 +15 1015.6 993.5
00 13.07 штиль 0 4000 м дымка 3/0
[Ac cast]
+13.1 +12.2 94 +13 +13 1015.5 993.2
03 13.07 штиль 0 4000 м дымка 1/0
[Ac cast]
+15.2 +14.3 94 +15 +16 1015.1 993.0 +12.6
06 13.07 СВ 2 10 км ясно +22.1 +14.1 60 +25 +33 комфорт 1014.1 992.5 +12.6
09 13.07 СВ 2 20 км 5/5 600 м
[Cu med, cong]
+24.2 +13.5 51 +26 +33 жарко 1013.3 991.9
12 13.07 С 1 10 км слабый ливневой дождь 8/5 600 м
[Cb cap Ac cast]
+21.0 +16.1 74 +26 +30 душно 1012.6 991.1
15 13.07 С 1 20 км 3/1 600 м
[Cu med, cong Ac cast]
+24.2 +14.5 55 +27 +30 жарко 1011.2 989.9 0.3
18 13.07 СВ 1 20 км 8/8 600 м
[Sc]
+20.5 +12.5 60 +24 +24 комфорт 1011.8 990.1 +25.0 0.3
21 13.07 штиль 0 10 км 6/4 600 м
[Sc Ac cast]
+16.4 +14.2 87 +16 +16 1011.6 989.7
00 14.07 С 1 4000 м дымка 9/9 600 м
[Sc]
+15.7 +14.0 90 +16 +16 1011.2 989.2
03 14.07 СВ 1 4000 м дымка 9/9 600 м
[Sc]
+16.7 +15.2 91 +18 +18 1010.7 988.8 +15.2
06 14.07 СВ 1 4000 м дымка 10/10 300 м
[St]
+17.7 +15.6 88 +19 +19 1010.5 988.7 +15.2
09 14.07 В 1 10 км 9/9 600 м
[Sc]
+19.9 +14.9 73 +23 +25 комфорт 1010.2 988.6
12 14.07 В 1 10 км {ливн. осадки} 8/8 600 м
[Cu Sc]
+22.0 +14.8 64 +25 +28 комфорт 1008.9 987.5
15 14.07 В 1 10 км 6/5 600 м
[Cu Sc Ac cast]
+23.4 +14.8 58 +27 +29 душно 1008.1 986.7 0.0
18 14.07 штиль 0 10 км 8/0
[Ac cast Ci fib]
+21.1 +16.1 73 +24 +24 комфорт 1008.6 987.1 +24.2 0.0
21 14.07 С 1 10 км 4/0
[Ac cast]
+17.2 +15.3 89 +18 +18 1009.3 987.5
00 15.07 С 1 4000 м дымка 8/3 600 м
[Sc Ac cast]
+16.0 +15.0 94 +17 +17 1009.6 987.7
03 15.07 С 1 4000 м дымка 8/0
[Ac cast]
+16.6 +15.6 94 +17 +18 1010.3 988.4 +15.4
06 15.07 В 1 10 км 6/3 600 м
[Cu med, cong Ac cast Ci fib]
+23.0 +17.1 69 +28 +33 душно 1010.2 988.8 +15.4
09 15.07 В 2 20 км 8/6 600 м
[Cu med, cong Ci fib]
+24.8 +16.1 58 +28 +33 жарко 1010.3 989.0
12 15.07 СВ 2 20 км 8/5 600 м
[Cu med, cong Ci fib]
+26.3 +15.0 50 +29 +34 жарко 1009.7 988.5
15 15.07 С 1 20 км 9/5 600 м
[Cu med, cong Ci fib]
+24.9 +16.9 61 +29 +30 душно 1009.9 988.7
18 15.07 штиль 0 10 км 8/3 600 м
[Sc diur, vesp Ac cast Ci fib]
+22.5 +17.2 72 +27 +27 душно 1010.8 989.4 +26.6
21 15.07 С 1 10 км 6/0
[Ac cast Ci fib]
+18.7 +16.0 84 +21 +21 комфорт 1011.5 989.8
00 16.07 штиль 0 4000 м дымка 6/0
[Ac cast Ci fib]
+16.3 +15.0 92 +16 +16 1012.4 990.5
03 16.07 С 1 4000 м дымка 6/0
[Ac cast Ci fib]
+17.4 +16.0 91 +18 +19 1013.0 991.1 +15.6
06 16.07 СВ 2 10 км 3/0
[Ci fib]
+23.8 +16.8 65 +27 +35 жарко 1012.7 991.3 +15.6
09 16.07 СВ 3 20 км 6/4 600 м
[Cu med, cong Ci fib]
+25.2 +15.5 55 +28 +35 жарко 1012.2 990.9
12 16.07 В 3 20 км 4/3 600 м
[Cu med, cong Ci fib]
+27.9 +13.9 42 +30 +36 жарко 1011.4 990.3
15 16.07 СВ 3 20 км 5/3 600 м
[Cu med, cong Ci fib]
+27.6 +13.6 42 +29 +31 жарко 1010.8 989.7
18 16.07 СВ 1 20 км 8/0
[Ac cast Ci fib]
+23.7 +13.9 54 +26 +26 жарко 1011.7 990.3 +28.3
21 16.07 СВ 1 10 км 5/0
[Ci fib]
+19.9 +14.6 72 +23 +23 комфорт 1012.4 990.7
00 17.07 С 1 10 км 8/0
[Ci fib]
+18.3 +14.2 77 +20 +20 1012.5 990.7
03 17.07 СВ 2 10 км 3/0
[Ci fib]
+19.1 +14.1 73 +21 +22 комфорт 1012.8 991.0 +17.9
06 17.07 В 3 20 км 1/0
[Ci fib]
+24.2 +15.9 60 +27 +34 жарко 1012.2 990.8 +17.9
09 17.07 СВ 4
{10}
20 км 6/6 600 м
[Cu med, cong]
+26.2 +14.1 47 +28 +32 жарко 1011.6 990.4
12 17.07 СВ 3
{10}
20 км 6/6 600 м
[Cu med, cong]
+27.7 +12.5 39 +29 +33 жарко 1010.9 989.8

 

Местоположение метеостанции Бологое (Тверская область, Россия): широта 57.88 долгота 34.03 высота над уровнем моря 187 м.

В архиве по умолчанию представлена погода в Бологом за последнюю неделю. Архивные данные за месяц целиком и за предыдущие месяцы, начиная с января 2011 года, Вы можете получить, выбрав интересующий диапазон дат из раскрывающегося списка и нажав кнопку "Ввод!".


*Определитесь, кто Вы:
робот инопланетянин человек

Внимание! Время в таблицах - всемирное. Для получения местного времени необходимо прибавить поправку, которая в Бологом равна 3 ч.

Смотрите также архив погоды в соседних городах и на ближайших метеорологических станциях:

Погода в Валдае (Новгородская область, Россия) (48 км)
Погода в Вышнем Волочке (Тверская область, Россия) (50 км)
Погода в Удомле (Тверская область, Россия) (58 км)
Погода в Боровичах (Новгородская область, Россия) (61 км)
Погода в Охонах (Новгородская область, Россия) (68 км)
Погода в Демянске (Новгородская область, Россия) (96 км)
Погода в Крестцах (Новгородская область, Россия) (99 км)
Погода в Осташкове (Тверская область, Россия) (102 км)
Погода в Максатихе (Тверская область, Россия) (111 км)
Погода в Торжке (Тверская область, Россия) (111 км)

Пояснения к столбцам:

Ветер - указаны скорость ветра в м/с - средняя за 10 мин, порывы в срок и между сроками (в фигурных скобках) и направление, откуда дует ветер: С - северный, СВ - северо-восточный, В - восточный, ЮВ - юго-восточный, Ю - южный, ЮЗ - юго-западный, З - западный, СЗ - северо-западный.
Видимость - горизонтальная дальность видимости в метрах или километрах. При видимости от 1 до 10 км при отсутствии осадков обычно наблюдается дымка, при ухудшении видимости до 1 км и менее - туман. В сухую погоду видимость может ухудшаться дымом, пылью или мглою.
Явления - указаны атмосферные явления, наблюдавшиеся в срок или в последний час перед сроком; фигурными скобками обозначены явления, наблюдавшиеся между сроками (за 1-3 часа до срока); квадратными скобками обозначены град или гололедные отложения с указанием их диаметра в мм.
Облачность - указаны через наклонную черту общая и нижняя облачность в баллах и высота нижней границы облаков в метрах; квадратными скобками обозначены формы облаков: Ci - перистые, Cs - перисто-слоистые, Cc - перисто-кучевые, Ac - высококучевые, As - высокослоистые, Sc - слоисто-кучевые, Ns - слоисто-дождевые, Cu - кучевые, Cb - кучево-дождевые. Подробнее классификацию облаков см. в Атласе облаков (PDF).
T - Температура воздуха - температура, измеренная на высоте 2 м над землей.
Td - Температура точки росы - температура, при понижении до которой содержащийся в воздухе водяной пар достигнет насыщения.
f - Относительная влажность воздуха - влажноcть воздуха, измеренная на высоте 2 м над землей.
Te - Эффективная температура - температура, которую ощущает одетый по сезону человек в тени. Характеристика душности погоды. При расчете учитывается влияние влажности воздуха и скорости ветра на теплоощущения человека.
Tes - Эффективная температура на солнце - температура, которую ощущает человек, с поправкой на солнечный нагрев. Характеристика знойности погоды. Зависит от высоты солнца над горизонтом, облачности и скорости ветра. Ночью, в пасмурную погоду, а также при ветре 12 м/с и более поправка равна нулю.
P - Атмосферное давление - приведенное к уровню моря атмосферное давление.
Po - Атмосферное давление - измеренное на уровне метеостанции атмосферное давление.
Tmin - Минимальная температура - минимум температуры воздуха на высоте 2 м над землей.
Tmax - Максимальная температура - максимум температуры воздуха на высоте 2 м над землей.
R - Количество осадков - Количество выпавших осадков за период времени, мм. При наведении курсора мыши на число - период времени, за который выпало указанное количество осадков.
R24 - Количество осадков - Количество выпавших осадков за 24 часа, мм.
S - Снежный покров - Высота снежного покрова, см. При наведении курсора мыши на число - состояние снежного покрова и степень покрытия местности в баллах.